TimeEDT,TemperatureF,Dew PointF,Humidity,Sea Level PressureIn,VisibilityMPH,Wind Direction,Wind SpeedMPH,Gust SpeedMPH,PrecipitationIn,Events,Conditions,WindDirDegrees,DateUTC
12:53 AM,80.1,70.0,71,30.01,10.0,East,5.8,-,N/A,,Mostly Cloudy,80,2013-10-13 04:53:00
1:53 AM,80.1,68.0,67,30.00,10.0,East,8.1,-,N/A,,Mostly Cloudy,90,2013-10-13 05:53:00
2:53 AM,79.0,66.9,66,29.98,10.0,East,8.1,-,N/A,,Mostly Cloudy,90,2013-10-13 06:53:00
3:53 AM,79.0,68.0,69,29.96,10.0,East,8.1,-,N/A,,Mostly Cloudy,100,2013-10-13 07:53:00
4:53 AM,78.1,66.9,68,29.96,10.0,East,5.8,-,N/A,,Partly Cloudy,80,2013-10-13 08:53:00
5:53 AM,79.0,69.1,72,29.98,10.0,ENE,5.8,-,N/A,,Partly Cloudy,60,2013-10-13 09:53:00
5:59 AM,78.8,69.8,74,29.98,10.0,NE,4.6,-,N/A,,Partly Cloudy,50,2013-10-13 09:59:00
6:53 AM,78.1,69.1,74,29.99,10.0,ENE,4.6,-,N/A,,Partly Cloudy,60,2013-10-13 10:53:00
7:53 AM,79.0,69.1,72,30.00,10.0,NE,4.6,-,N/A,,Clear,50,2013-10-13 11:53:00
8:53 AM,82.0,68.0,62,30.02,10.0,East,10.4,-,N/A,,Scattered Clouds,80,2013-10-13 12:53:00
9:53 AM,82.9,66.0,56,30.03,10.0,ENE,9.2,-,N/A,,Partly Cloudy,70,2013-10-13 13:53:00
10:53 AM,84.9,66.0,53,30.04,10.0,East,8.1,-,N/A,,Scattered Clouds,90,2013-10-13 14:53:00
11:53 AM,84.0,66.0,55,30.04,10.0,East,9.2,-,N/A,,Scattered Clouds,100,2013-10-13 15:53:00
12:53 PM,86.0,68.0,55,30.02,10.0,East,9.2,-,N/A,,Scattered Clouds,90,2013-10-13 16:53:00
1:53 PM,84.9,66.9,55,30.01,10.0,East,8.1,-,N/A,,Mostly Cloudy,100,2013-10-13 17:53:00
2:53 PM,82.9,66.9,58,29.99,10.0,East,12.7,-,N/A,,Mostly Cloudy,100,2013-10-13 18:53:00
3:53 PM,82.9,68.0,60,29.97,10.0,East,10.4,-,N/A,,Mostly Cloudy,90,2013-10-13 19:53:00
4:53 PM,82.9,66.0,56,29.96,10.0,East,12.7,-,N/A,,Scattered Clouds,80,2013-10-13 20:53:00
5:53 PM,82.9,66.9,58,29.96,10.0,East,11.5,-,N/A,,Scattered Clouds,100,2013-10-13 21:53:00
6:53 PM,81.0,66.9,62,29.97,10.0,East,9.2,-,N/A,,Scattered Clouds,90,2013-10-13 22:53:00
7:53 PM,80.1,68.0,67,29.98,10.0,ENE,6.9,-,N/A,,Clear,70,2013-10-13 23:53:00
8:53 PM,81.0,68.0,65,30.00,10.0,East,9.2,-,N/A,,Scattered Clouds,80,2013-10-14 00:53:00
9:53 PM,80.1,68.0,67,30.01,10.0,East,8.1,-,N/A,,Clear,80,2013-10-14 01:53:00
10:53 PM,80.1,68.0,67,30.01,10.0,East,9.2,-,N/A,,Clear,80,2013-10-14 02:53:00
11:53 PM,80.1,70.0,71,30.00,10.0,East,8.1,-,N/A,,Clear,80,2013-10-14 03:53:00